sat.trackr.live / text

‹ back to catalog

STARLINK-2582

NORAD 48460 · 2021-040AJ

PAYLOAD ACTIVE UNKNOWN

§ Identity

Operator
Country
US
Launch date
2021-05-09
Launch site
AFETR
Launch vehicle
Mass (kg)
RCS (m²)

Purposes: comms

External: N2YO · Heavens-Above · Gunter

§ Orbital elements

Epoch: 2026-05-25T03:43:16.948128Z

Period
91.53 min
Inclination
53.0498°
Eccentricity
0.0007812
Mean motion
15.73187610 rev/d
Perigee alt
344.5 km
Apogee alt
355.0 km
Semi-major
6,727.9 km
B*
8.0975e-4
RAAN
115.4284°
Arg perigee
41.7105°
Mean anomaly
318.4507°
Rev number
27,984

§ Raw data

STARLINK-25821 48460U 21040AJ  26145.15505727  .00114721  00000+0  80975-3 0  99962 48460  53.0498 115.4284 0007812  41.7105 318.4507 15.73187610279841

JSON: /api/v1/satellites/48460 · /tle

For live sub-satellite position, see the globe view (requires WebGL).

§ Visibility from observer

Set your observer location to see the next 7 days of passes ≥ 10°. The values pass through the URL so the page stays shareable.

No JS? Fill the form by hand. The geolocation button needs JavaScript.